Theta_e
333 320 312 313 308 306 305 297 290 288 289 285 284 285 285 291 296 294 294 295 294 296 322 326 325 322 317 313 315 322 325 318 316 312 306 316 340 341 346 349 350 351 351 352 352 352 352 353 352 353 352 353 353 353 352 352 352 351 351 351 351 351 352 352 352 352 352 352 353 353 352 352 351 351 351 351 352 350 349 350 350 349 348 348 348 348 348 348 348 348 348 348 348 349 349 349 348
322 312 312 309 310 305 301 291 284 285 284 279 284 284 287 289 294 292 292 294 293 313 324 325 328 329 328 327 327 327 323 328 329 327 332 338 341 344 349 350 350 350 351 352 352 351 351 352 353 352 352 353 353 352 351 352 351 351 351 352 352 351 351 351 351 351 352 353 353 353 353 353 353 352 352 353 352 352 351 351 349 348 349 349 349 348 347 348 347 348 349 349 349 349 348 347 347
311 310 311 309 305 302 298 292 287 280 283 280 281 287 289 290 292 293 294 295 296 297 311 325 326 326 323 325 316 319 313 332 333 334 334 339 335 340 348 350 351 351 352 352 351 350 350 352 353 352 352 352 352 352 351 351 351 351 351 351 351 351 351 350 350 350 351 351 352 352 353 353 353 354 353 353 351 351 351 350 349 349 348 348 348 349 348 348 348 349 348 349 349 349 348 347 346
311 313 309 303 302 294 292 288 281 283 281 279 281 286 288 288 292 293 294 295 297 299 314 323 323 327 324 319 322 327 327 329 334 334 332 335 334 345 349 351 353 352 352 351 350 350 350 352 352 352 352 352 352 351 351 351 350 351 352 351 352 351 350 349 350 350 351 351 351 352 352 352 352 352 352 351 351 351 350 350 348 348 348 347 348 347 348 348 348 348 348 349 349 349 347 346 345
311 314 307 300 296 296 292 287 282 282 283 281 279 282 290 291 292 294 296 298 301 301 308 324 321 327 328 326 327 317 318 333 334 337 335 340 346 348 350 351 351 351 350 351 351 350 350 353 352 352 352 352 352 351 351 351 351 351 350 352 352 352 352 351 351 351 352 352 351 351 351 351 351 351 351 351 351 351 350 349 349 348 347 347 347 347 347 347 348 348 348 348 348 348 347 346 346
303 304 308 308 301 296 292 288 287 284 286 284 286 287 288 292 294 295 298 299 301 311 312 323 322 322 324 326 329 321 331 324 333 334 338 340 346 349 350 351 350 350 350 350 350 350 350 352 352 352 352 351 352 352 351 349 350 350 351 351 351 351 351 352 352 352 351 351 352 351 351 351 351 351 351 352 351 351 351 349 349 347 347 347 347 347 347 347 347 347 347 347 347 347 347 347 346
305 303 300 303 298 295 286 282 283 286 290 289 289 292 295 295 296 297 298 299 299 322 325 324 327 325 321 325 330 333 336 337 335 334 342 344 347 349 350 350 349 349 350 350 350 350 351 352 352 352 352 352 352 352 351 351 350 351 351 351 351 352 352 352 351 351 351 351 351 351 351 351 351 351 351 351 351 350 349 348 347 347 347 347 347 346 346 347 347 346 346 346 347 347 346 345 345
308 303 299 292 289 291 288 284 286 286 288 292 293 294 297 298 298 297 298 298 297 307 319 326 325 321 319 331 321 331 337 337 338 343 345 347 348 349 350 349 348 348 349 349 350 350 352 352 352 351 352 353 353 353 353 352 351 351 351 352 351 351 352 352 352 351 351 350 351 350 351 350 350 351 350 350 350 349 348 347 348 347 347 347 347 346 346 346 346 347 347 347 347 347 346 345 344
299 296 298 293 289 287 283 285 286 288 290 292 295 297 306 301 300 298 296 297 298 298 316 324 323 317 320 327 325 333 334 338 343 345 345 346 346 348 349 348 347 347 349 349 350 350 350 352 351 352 352 352 352 353 353 352 352 352 352 352 352 352 351 351 351 351 351 350 349 350 350 350 349 350 350 350 350 349 348 348 347 347 347 347 347 346 346 346 347 347 347 347 346 346 345 344 343
296 297 293 289 285 287 281 284 286 287 288 290 292 295 295 296 295 295 295 294 296 300 307 324 322 316 326 324 329 331 329 339 342 342 345 346 346 348 348 348 348 347 348 349 349 349 349 352 351 352 352 352 352 353 352 352 352 352 352 352 351 351 351 351 351 351 350 349 349 350 349 349 349 350 350 349 349 349 348 347 347 347 347 347 347 346 346 346 347 347 346 346 345 345 345 344 343
294 292 292 289 284 283 285 283 283 288 288 291 294 297 296 297 295 294 294 295 295 296 321 326 322 323 326 327 330 337 337 338 340 338 343 345 347 346 347 348 348 348 347 348 349 348 349 349 353 352 352 352 352 352 352 352 351 351 351 351 351 351 351 351 350 350 350 350 350 349 349 350 350 349 349 349 349 348 348 348 348 347 347 348 347 346 346 346 346 346 345 345 345 344 344 343 343
291 290 288 281 282 284 282 282 285 288 291 292 294 296 297 297 295 294 293 292 299 306 321 325 321 327 324 326 328 334 335 335 338 340 343 346 345 346 347 348 348 348 349 348 348 347 348 348 349 352 352 351 352 352 352 351 351 351 350 351 351 351 350 350 350 350 349 349 349 349 349 349 349 349 349 349 348 348 348 347 347 347 348 348 347 346 346 345 345 345 345 344 344 344 343 343 342
290 287 285 284 282 284 285 285 286 293 290 290 291 295 295 295 296 297 296 295 313 320 319 323 329 327 319 325 333 334 332 334 338 340 343 344 345 346 347 347 348 348 348 348 347 347 347 348 349 350 351 353 352 351 351 351 350 350 350 350 350 350 350 350 349 350 349 349 349 348 348 349 349 348 348 348 348 347 347 347 347 348 348 347 347 346 345 345 345 345 344 344 344 343 342 342 342
291 290 288 286 284 284 284 284 284 286 287 291 293 294 295 295 303 312 308 311 316 317 323 327 329 329 326 330 329 329 332 335 338 340 342 344 345 346 346 347 347 347 348 348 347 347 347 348 349 348 348 349 349 351 351 350 350 349 349 349 350 350 350 350 349 349 349 349 349 349 349 349 348 348 348 347 347 348 348 347 347 347 347 347 346 346 345 345 345 344 344 343 342 342 341 341 341
296 291 286 285 284 284 283 286 284 284 287 292 295 294 296 299 310 319 317 314 318 325 329 333 330 326 320 325 325 329 332 335 339 341 342 343 344 345 345 346 346 347 347 347 348 347 347 347 347 347 348 348 348 347 348 349 350 349 349 349 350 350 350 349 349 349 349 349 349 349 348 348 347 346 346 346 347 347 347 347 347 346 346 346 345 345 344 344 344 343 342 342 341 340 339 340 340
295 290 287 288 283 283 285 286 285 288 290 292 294 293 296 297 305 322 323 323 321 329 328 325 329 319 326 328 329 334 333 336 340 341 341 341 342 343 343 343 345 346 346 347 347 347 348 347 347 346 347 348 347 347 347 347 349 349 349 350 350 349 349 349 349 349 349 348 348 348 347 345 345 345 346 346 347 346 346 346 346 346 346 345 344 343 343 343 343 342 341 341 340 339 338 339 339
293 290 289 281 285 284 284 287 287 285 289 290 293 294 293 294 299 327 329 330 324 323 326 328 328 331 329 330 335 336 335 339 340 339 338 338 339 338 339 340 342 343 344 346 346 347 347 346 346 345 346 347 347 346 345 345 348 349 348 349 349 349 349 349 348 348 346 346 345 346 344 342 342 342 343 343 346 344 345 345 344 343 343 343 342 342 341 342 341 341 340 339 339 337 336 336 338
295 290 283 284 285 284 287 288 288 290 291 293 294 293 294 294 296 312 326 324 324 325 326 327 332 332 333 336 338 336 337 338 338 336 334 334 336 335 334 336 339 339 341 344 346 346 346 346 346 345 346 346 345 344 344 345 346 345 344 345 345 346 347 346 344 344 345 344 346 343 341 343 340 340 343 346 343 344 343 344 343 343 342 342 342 342 342 340 340 339 338 339 338 336 334 328 329
292 286 285 286 285 288 290 290 291 291 292 293 295 294 293 294 294 303 318 317 318 321 325 329 329 333 335 336 336 335 337 336 336 334 332 332 333 332 332 335 337 339 340 342 343 345 345 345 345 345 345 344 342 343 344 345 344 342 342 343 344 346 346 344 343 341 339 339 340 340 341 339 339 340 341 344 344 344 344 343 343 343 343 342 342 341 340 340 340 339 339 337 336 334 328 327 326
294 287 285 288 288 288 289 291 293 293 293 293 294 294 292 295 295 305 317 315 317 319 322 325 327 328 332 334 334 335 336 335 335 334 332 332 333 333 333 335 336 338 339 341 342 345 345 344 344 345 344 343 342 342 342 341 341 342 341 340 341 341 340 339 338 338 338 338 338 338 338 340 339 338 345 346 347 342 342 344 343 343 343 343 342 341 341 340 339 338 337 334 332 331 328 329 327
293 292 289 290 290 292 292 293 293 294 293 293 293 293 294 295 295 315 317 316 315 317 324 326 325 329 332 334 333 334 335 334 334 334 333 332 333 335 335 336 336 338 341 342 342 343 344 343 344 344 343 343 342 341 340 339 340 341 340 340 340 340 338 337 336 336 337 337 336 336 336 337 337 338 339 340 338 338 337 338 338 338 338 337 338 334 333 331 330 327 328 330 328 329 329 329 328
293 294 296 294 293 294 295 294 294 294 294 293 291 292 295 295 299 316 316 312 310 313 321 327 331 333 334 333 333 334 334 334 334 334 333 333 332 331 332 332 335 339 341 339 340 342 343 343 343 342 342 342 341 341 339 340 340 339 339 339 339 339 338 336 335 336 335 335 335 336 336 335 336 337 338 338 337 336 336 335 335 336 335 335 336 333 331 329 328 328 329 329 329 330 330 329 331
291 292 293 293 293 294 294 296 297 295 293 292 291 294 293 293 294 299 311 312 312 317 324 330 333 335 337 337 335 334 334 332 332 334 333 332 328 328 328 330 334 337 339 339 341 341 342 342 342 341 340 341 340 341 340 339 338 339 338 338 337 337 338 336 335 335 335 334 335 336 335 334 335 337 338 338 337 336 335 335 334 334 334 334 335 332 330 328 329 329 329 329 329 330 330 330 328
295 293 292 295 293 293 293 297 296 294 292 293 294 294 292 292 291 296 313 318 320 327 329 333 334 337 338 335 335 330 325 323 323 325 332 328 327 328 329 331 331 335 337 338 339 340 341 341 341 341 340 340 339 340 338 336 336 336 338 340 337 339 338 336 336 335 335 334 335 335 336 335 336 337 338 337 336 335 334 334 333 333 334 333 333 331 328 327 329 329 328 327 329 329 330 330 328
293 293 293 294 295 294 295 294 293 293 292 293 293 291 294 293 292 296 299 311 323 328 331 333 335 336 336 334 325 323 324 325 325 326 327 329 329 330 329 330 330 332 330 331 338 339 340 341 340 339 339 339 339 338 336 335 335 336 338 336 337 340 337 337 337 335 333 334 334 335 337 335 336 337 336 336 336 334 333 333 332 332 332 330 329 327 328 326 328 328 328 327 328 328 328 329 329
293 294 296 296 296 295 295 293 294 293 294 294 292 292 293 292 294 297 297 318 326 329 330 332 334 334 334 329 323 323 322 322 324 324 325 328 330 329 328 328 328 329 330 333 338 339 340 341 340 339 338 338 338 336 334 333 334 335 336 336 338 339 337 337 337 335 334 334 333 333 335 335 335 335 335 335 334 333 333 332 331 330 330 329 328 327 328 328 328 328 327 327 327 328 329 330 329
292 293 293 295 295 294 292 291 292 291 291 291 292 292 292 293 301 294 306 324 328 329 330 332 333 333 329 323 322 323 322 322 323 324 325 328 328 328 327 328 328 329 331 334 337 338 340 340 339 338 338 338 337 334 333 332 334 334 335 336 338 337 337 337 336 335 334 334 333 333 333 335 334 335 335 333 332 332 331 330 329 329 328 328 328 328 328 327 327 327 326 326 327 327 327 327 328
294 294 292 290 290 290 290 289 290 290 292 290 291 291 292 291 292 293 298 324 328 327 329 330 332 328 323 323 323 323 322 323 325 325 324 323 326 327 327 327 328 329 331 334 336 338 339 339 339 338 338 337 335 333 332 331 331 333 335 335 337 338 338 336 335 334 334 333 334 332 333 334 335 334 333 332 331 330 330 330 330 329 328 328 328 328 329 328 328 328 329 329 328 328 327 327 327
293 292 289 288 289 291 288 291 293 290 291 292 291 292 290 290 289 291 306 326 325 326 328 330 330 325 323 324 323 322 323 323 324 324 325 325 327 328 327 329 329 329 333 335 336 337 337 338 338 338 337 336 334 332 331 331 332 334 334 336 337 338 337 336 334 333 332 333 333 332 333 334 334 333 332 332 332 330 330 330 329 329 329 329 329 330 331 331 330 329 329 329 328 327 326 326 327
294 292 289 288 287 287 290 289 290 291 292 291 293 284 284 286 289 290 324 326 325 326 327 329 329 325 324 323 322 321 321 322 323 324 325 325 327 328 326 328 330 330 332 335 336 336 338 338 338 337 337 335 333 332 331 332 333 334 335 337 337 336 336 335 334 332 333 332 332 333 333 334 333 333 332 330 329 329 329 329 329 329 329 330 330 330 329 329 329 329 328 328 328 325 324 324 325
290 288 289 285 283 281 287 289 289 291 291 291 294 285 284 289 290 294 322 326 325 324 326 328 328 324 323 323 322 320 320 322 323 324 324 324 325 326 327 327 329 330 333 334 334 335 336 336 337 336 336 334 333 331 331 332 333 334 335 336 336 335 335 334 333 332 332 332 332 332 332 333 332 331 331 329 328 329 329 328 328 330 329 330 329 329 329 328 327 327 327 326 326 326 325 326 324
285 286 282 280 283 281 287 291 290 291 291 290 292 285 286 290 290 308 323 324 324 323 325 327 326 323 323 323 323 322 321 322 323 324 324 325 325 325 326 326 328 330 333 333 333 335 335 335 337 335 335 332 331 331 331 332 333 334 336 336 335 335 334 333 332 332 332 331 331 331 331 333 331 330 329 329 328 328 329 329 328 329 330 329 329 329 329 327 326 326 327 327 325 325 325 324 324
281 284 281 281 282 281 286 290 289 290 290 291 292 284 283 289 290 297 323 324 323 322 324 326 324 322 323 323 324 322 320 321 322 323 323 324 324 323 323 323 327 331 333 333 333 334 334 335 336 335 333 332 331 331 332 333 334 335 335 334 334 334 333 332 332 331 332 331 331 332 331 332 330 329 329 328 328 327 327 328 329 330 330 329 329 328 326 326 326 325 325 327 326 324 324 324 323
279 281 282 281 284 283 283 287 291 289 291 289 288 288 286 290 288 295 316 322 321 321 323 325 322 322 324 323 323 321 320 320 320 322 322 322 323 322 322 326 326 332 334 334 334 334 333 334 334 335 333 333 332 332 332 333 334 334 333 333 333 332 332 332 331 332 331 330 331 332 331 331 331 329 328 328 327 328 328 328 328 329 328 328 328 327 326 325 325 325 325 327 327 325 324 324 323
279 280 282 282 282 283 284 285 287 291 289 288 287 288 287 290 290 297 313 320 320 320 323 324 321 322 322 323 322 321 321 320 320 321 322 321 322 320 323 326 329 332 333 333 334 334 334 333 334 334 333 332 332 333 333 333 332 331 331 331 330 330 331 331 331 330 329 330 330 332 331 331 332 329 329 328 329 330 327 327 328 328 329 327 326 326 326 325 324 324 325 326 327 324 324 324 324
284 282 281 280 282 283 283 285 288 290 288 289 288 287 288 289 289 290 299 316 318 318 323 322 321 322 322 323 322 322 322 321 321 321 320 320 319 318 324 328 331 332 332 333 334 334 333 333 333 333 332 333 333 332 332 330 330 329 327 328 329 329 329 329 329 329 329 329 330 331 331 330 331 330 329 329 329 328 327 328 327 327 327 326 325 324 323 324 323 322 325 326 325 325 325 324 325
285 283 284 283 282 284 286 287 290 290 289 287 289 288 287 288 289 290 296 309 311 317 320 319 320 321 321 322 322 322 321 321 321 320 320 319 320 322 325 328 331 332 332 333 333 332 332 331 331 330 331 332 331 330 329 329 327 327 327 327 326 327 328 328 327 327 327 328 330 330 331 331 330 330 330 329 328 331 329 328 327 327 326 326 326 325 324 325 326 326 325 325 324 323 322 323 324
287 286 283 283 282 283 287 288 289 290 290 285 287 288 289 290 290 290 293 307 311 313 318 319 319 321 322 322 322 322 323 321 320 318 318 320 322 325 327 328 330 329 331 332 331 331 331 331 330 330 331 331 331 330 330 329 329 328 327 326 326 326 327 325 324 325 326 329 329 329 330 330 330 330 330 329 330 330 328 328 328 327 326 325 325 325 324 326 325 324 325 324 323 322 321 323 323
286 284 283 282 283 283 287 288 289 291 290 287 288 288 290 290 290 290 293 306 312 315 320 320 320 320 321 322 322 322 321 320 318 317 318 320 322 326 327 328 330 330 330 331 331 331 330 330 329 329 330 330 330 330 329 328 328 328 327 325 326 324 324 324 325 326 329 328 328 329 330 330 329 328 329 330 329 329 328 328 328 326 325 327 326 326 326 325 324 324 325 324 321 322 323 323 323
284 284 283 282 283 284 281 285 290 292 291 289 289 288 289 287 289 294 295 298 302 308 318 320 321 320 320 321 322 322 321 320 318 317 318 321 322 325 327 328 329 330 330 330 330 330 330 329 328 329 329 329 329 330 328 327 327 325 324 324 323 322 322 325 325 325 326 327 327 329 329 329 329 329 329 330 329 328 327 326 325 325 325 327 326 325 325 325 323 321 321 323 324 322 322 322 323
283 285 283 283 284 284 284 285 288 290 290 291 288 287 282 284 291 296 300 303 304 309 314 318 320 321 321 321 322 323 321 321 318 317 319 321 321 323 326 328 329 328 329 329 330 329 329 328 328 329 328 328 328 329 327 326 325 323 323 323 325 324 324 324 324 323 325 327 326 327 327 328 329 329 329 329 329 327 326 325 325 324 324 324 325 326 326 325 324 322 322 323 324 324 319 317 321
281 284 287 286 286 286 285 286 287 284 283 286 288 279 277 281 290 297 302 300 302 306 313 316 318 320 321 320 320 320 320 318 317 319 319 321 321 325 327 327 327 328 328 330 331 330 329 328 328 328 327 327 327 326 326 325 324 322 322 322 321 320 320 321 322 323 325 325 325 323 327 327 327 326 326 327 328 326 324 323 324 323 323 324 324 325 325 323 323 324 323 324 322 322 323 317 319
281 283 287 288 288 286 286 285 286 280 281 287 289 282 277 279 293 300 304 304 302 306 311 315 317 318 319 320 319 318 318 317 318 320 320 320 322 324 326 326 327 327 328 330 331 330 329 328 328 327 326 326 326 326 325 324 322 322 322 322 322 322 320 317 319 322 324 319 321 323 323 322 323 324 322 323 324 324 321 320 321 322 323 322 324 322 322 323 324 324 324 322 322 321 321 320 320
280 283 287 288 286 286 286 287 285 282 285 288 286 281 280 278 285 302 304 301 302 306 309 313 315 317 318 319 318 317 316 318 318 318 320 321 322 324 324 326 327 328 329 330 330 329 328 327 327 326 326 326 325 325 324 324 322 321 320 320 321 321 321 319 320 319 319 320 320 319 318 316 317 318 319 319 321 321 319 318 319 319 319 320 322 320 320 318 319 321 324 322 321 322 322 322 319
284 286 289 287 288 288 287 287 284 283 283 282 280 287 281 277 284 298 303 298 299 302 307 310 314 316 317 317 317 315 314 317 318 318 319 321 322 324 325 326 328 328 329 329 329 329 328 327 327 326 325 324 323 324 323 322 323 321 321 321 320 320 320 319 319 319 319 320 317 315 316 314 314 314 316 318 318 320 322 318 318 318 319 320 322 318 317 318 319 319 320 320 321 320 321 320 320
289 289 291 289 289 289 288 284 285 283 281 277 282 283 281 277 281 291 300 301 300 300 304 309 313 315 315 315 315 314 314 316 319 320 321 322 324 325 326 327 327 328 329 329 329 329 328 327 326 325 324 324 323 323 322 321 321 321 320 320 319 318 319 317 317 317 317 317 316 313 313 313 313 313 313 315 317 318 319 320 318 318 317 319 320 316 316 316 316 317 318 319 319 319 319 321 321
290 291 289 286 283 283 284 282 280 280 275 279 284 283 283 278 279 290 295 297 300 301 304 308 312 315 315 314 314 314 314 316 318 319 321 323 325 325 326 326 327 328 328 328 328 329 328 327 326 324 324 323 322 321 321 320 319 320 320 320 319 317 316 315 315 315 315 315 314 312 312 312 312 312 314 314 316 317 318 319 316 316 319 322 318 315 315 315 314 314 314 316 317 318 317 317 317
292 288 285 283 285 281 281 278 278 275 270 278 279 282 282 279 281 285 290 295 296 304 305 306 309 313 314 313 314 315 316 317 318 319 320 323 323 324 325 325 326 326 326 327 328 328 328 327 326 323 322 322 320 319 319 319 319 319 319 319 318 318 316 316 315 314 314 314 312 311 310 311 310 311 312 314 315 316 317 316 317 315 315 314 314 314 314 313 313 313 312 313 312 312 314 316 315
288 284 285 282 276 274 273 276 275 273 276 280 282 283 283 279 283 292 298 299 301 302 307 308 310 312 313 311 313 315 318 319 318 318 319 321 321 322 323 323 325 325 325 327 328 328 328 327 325 323 322 320 319 318 318 318 318 318 318 318 318 318 317 316 315 314 313 314 312 311 311 311 310 312 311 313 313 314 316 314 314 314 314 315 313 313 312 312 312 311 311 310 310 311 311 313 315
285 285 281 278 275 270 266 268 270 275 279 281 283 285 282 283 289 292 298 301 303 303 304 308 311 312 311 312 313 314 314 315 317 318 319 320 321 322 322 323 325 325 326 327 327 328 328 327 326 324 321 319 318 317 317 317 317 317 317 318 318 318 316 315 314 314 313 313 312 312 311 311 311 312 311 312 312 314 314 315 314 312 313 313 313 311 312 312 311 310 310 310 309 308 309 309 309
287 286 286 283 277 274 270 274 271 276 278 280 283 283 279 283 286 299 300 303 305 304 306 308 310 310 311 312 313 314 315 317 320 319 319 320 321 322 322 323 324 325 325 326 327 327 327 326 326 323 320 318 317 316 317 317 317 317 317 318 319 318 317 315 314 315 313 312 312 312 311 310 311 310 311 311 313 312 312 312 313 312 311 311 312 312 311 310 311 311 311 310 310 308 309 310 308
285 284 285 283 281 278 279 274 278 277 278 280 281 279 283 286 296 299 303 305 306 307 307 308 309 311 311 311 311 312 315 318 320 319 319 320 321 322 322 323 324 325 325 325 325 326 326 326 325 322 320 318 317 317 316 317 317 317 317 317 318 318 318 315 314 314 313 313 312 312 310 310 311 310 311 311 311 312 312 313 312 310 309 310 310 310 310 310 310 310 309 309 310 312 308 308 307
285 285 283 285 287 284 276 277 279 276 274 276 277 283 284 289 295 298 301 303 306 307 307 307 308 310 311 311 313 315 317 319 320 319 319 319 321 321 322 323 323 324 325 324 325 326 326 325 323 321 319 315 315 315 316 316 316 316 316 318 317 317 316 314 314 313 312 312 312 311 311 310 310 310 311 311 310 310 311 311 310 309 309 309 309 309 309 309 309 309 308 308 308 308 310 307 308
285 282 284 288 289 287 282 275 272 270 271 272 280 282 281 282 283 296 299 300 303 306 306 307 307 308 309 311 312 313 314 317 319 320 320 320 321 321 322 323 324 323 324 325 325 326 325 323 322 321 319 316 314 315 315 315 315 316 316 316 317 317 315 314 313 312 312 312 311 311 312 312 311 312 312 312 311 312 314 315 309 309 308 308 309 308 308 307 308 308 307 308 307 308 309 308 309
289 283 289 286 278 280 279 278 271 272 271 270 277 281 280 280 284 293 296 297 298 303 306 307 307 308 308 310 310 311 313 314 315 315 318 320 320 320 321 322 324 324 324 325 326 326 325 324 322 321 318 317 316 316 317 316 316 317 317 317 317 316 315 314 313 313 312 311 311 311 312 311 311 312 313 311 311 310 309 309 309 308 308 308 307 308 308 308 308 309 309 307 307 307 307 307 307
290 291 289 290 283 280 279 277 278 279 271 270 275 279 277 287 291 296 297 299 300 303 305 306 307 308 309 309 310 311 312 312 313 313 314 317 318 319 320 321 322 323 323 324 325 325 324 323 320 318 318 319 318 317 317 317 316 317 316 316 316 317 316 314 313 313 312 312 312 312 311 310 311 313 311 311 310 309 309 308 308 308 308 307 308 308 308 308 308 307 307 308 307 307 307 306 307
285 286 283 286 284 285 285 283 281 279 271 268 271 272 277 284 298 299 299 301 301 303 304 305 307 308 308 308 309 310 312 312 312 313 314 315 316 317 317 318 319 321 324 324 324 324 322 319 318 319 319 319 318 317 317 317 317 316 317 316 316 316 315 314 313 313 312 312 312 312 311 311 311 311 311 310 309 309 309 309 309 310 308 308 308 309 309 308 309 307 307 307 307 307 307 307 308
283 284 281 284 283 283 281 276 281 279 278 271 273 271 277 288 303 302 301 303 303 304 303 303 305 307 307 307 307 309 310 310 311 311 311 312 313 313 315 317 319 319 320 322 322 320 318 318 319 319 319 319 317 317 318 317 316 316 316 316 315 316 315 314 313 313 312 312 312 311 311 312 311 311 311 311 309 310 310 309 309 308 308 308 308 308 308 308 308 308 308 308 307 307 307 306 307
Wind_Speed
4 3 0 0 2 2 1 4 2 2 2 4 3 2 5 1 3 4 5 4 3 2 1 3 3 4 3 4 7 5 3 5 4 9 7 0 4 7 11 14 14 13 14 12 11 11 12 16 17 18 19 20 20 20 21 22 22 22 20 19 19 19 18 18 18 18 18 17 18 17 19 19 19 18 18 19 19 18 17 17 17 18 18 18 19 19 19 19 19 18 18 18 17 17 17 16 16
3 2 0 1 0 2 1 1 3 2 3 3 8 2 6 1 1 6 2 2 2 0 1 1 2 5 5 5 8 4 3 4 2 1 3 2 7 6 11 13 14 15 13 12 11 11 11 13 17 18 19 19 19 20 21 21 21 21 21 20 19 18 18 18 18 18 18 17 17 18 18 18 19 19 18 17 17 16 16 16 17 18 17 18 19 19 19 19 19 18 17 17 17 17 16 15 15
2 3 2 2 3 3 1 3 1 1 2 6 7 7 1 1 8 2 3 4 5 5 4 6 2 1 2 0 0 2 1 1 5 2 4 7 10 7 11 11 12 14 14 11 11 11 10 12 17 18 19 19 19 20 21 20 20 20 19 19 19 19 18 19 18 18 17 17 17 18 18 18 19 19 19 18 17 15 15 15 17 17 18 17 18 18 18 18 18 17 17 16 16 16 15 14 14
4 1 2 3 0 3 2 3 4 7 3 6 5 6 4 4 5 0 4 6 6 7 2 2 2 1 1 3 0 1 4 3 2 5 6 8 2 9 10 11 12 11 11 10 10 10 9 15 18 18 19 19 19 19 21 21 21 19 19 19 18 18 17 17 17 17 16 16 16 15 16 18 19 19 18 17 15 14 15 15 15 16 16 17 17 17 17 17 17 17 16 16 16 15 14 14 12
3 1 2 2 4 1 1 1 2 3 7 4 4 2 3 4 5 4 3 4 9 9 3 1 1 3 1 2 1 0 2 3 4 2 4 3 8 9 11 12 12 12 11 10 10 10 10 19 18 17 18 19 19 19 19 19 19 18 18 18 18 17 17 16 16 16 16 16 15 15 17 17 18 18 17 15 12 13 14 14 14 14 15 16 16 16 16 16 16 16 16 15 15 15 13 13 10
4 2 3 2 0 2 4 1 1 6 5 4 2 4 2 4 3 3 8 6 10 6 4 3 1 1 4 3 0 2 2 1 3 2 4 6 11 11 11 10 11 11 11 10 10 8 9 18 18 17 17 19 19 19 19 20 19 18 18 18 18 17 16 15 15 15 16 16 14 15 16 16 16 15 14 14 13 12 14 15 14 15 15 15 16 15 16 16 15 16 16 15 15 14 13 11 9
2 3 3 3 2 4 4 2 6 5 8 5 4 7 8 6 4 5 8 10 3 0 1 2 3 3 2 2 1 1 2 2 3 2 4 10 12 11 11 11 12 12 12 10 9 9 12 16 16 17 18 19 19 19 19 18 19 19 19 19 18 16 16 15 14 14 15 16 15 16 17 16 17 16 15 15 14 15 17 16 15 14 15 15 15 15 15 16 16 16 15 15 15 13 11 10 9
1 2 1 3 1 2 0 2 6 3 6 6 3 7 10 8 4 4 8 1 7 2 2 3 4 4 1 2 1 3 8 4 7 10 12 10 12 12 11 10 12 12 11 10 9 9 15 17 17 17 18 18 19 19 19 18 18 17 17 17 16 16 17 16 14 12 12 13 15 17 17 16 17 18 16 15 14 14 15 15 14 14 14 15 15 15 16 16 16 16 16 15 14 13 11 10 9
2 5 0 4 1 1 1 5 5 3 6 4 10 10 13 8 5 5 7 4 6 3 3 5 2 3 1 3 2 4 4 4 10 12 12 12 12 11 9 10 12 11 11 10 9 9 11 16 17 17 18 19 19 19 18 17 17 17 17 16 15 15 15 16 15 12 11 13 17 16 17 17 17 17 16 15 14 14 14 14 14 14 14 14 15 15 16 16 16 15 15 15 13 12 11 10 9
2 2 1 2 3 2 2 6 0 5 4 4 6 12 7 6 6 4 9 8 9 5 3 4 3 3 4 5 2 3 1 2 10 10 10 11 11 10 10 10 12 15 11 10 10 10 9 17 17 17 17 18 18 18 16 16 17 17 17 16 14 14 14 14 12 12 13 15 15 16 16 16 16 16 15 15 14 13 13 13 13 13 13 14 14 15 15 15 15 15 14 13 13 12 11 10 10
0 4 2 3 2 1 6 7 4 6 4 5 10 10 8 8 5 5 5 8 4 5 0 6 4 6 4 4 1 2 2 3 11 11 10 10 10 11 9 9 9 12 13 11 10 10 10 11 18 17 17 17 17 16 16 16 16 16 16 15 14 14 14 13 13 12 13 14 15 15 15 14 15 14 14 15 14 13 13 13 13 12 12 13 12 13 13 13 13 13 13 12 11 11 11 10 10
1 1 1 3 3 7 5 3 5 7 7 4 6 3 1 3 4 4 3 5 3 5 4 6 5 4 5 4 2 2 3 2 5 10 9 9 8 9 10 8 10 8 11 12 10 8 9 10 10 16 17 17 16 16 15 15 15 16 16 15 14 14 13 13 12 13 14 13 14 14 13 13 14 13 13 13 14 13 13 13 12 11 12 13 12 11 11 11 11 11 11 11 11 11 11 10 10
3 1 5 4 3 1 2 2 6 4 5 5 4 4 3 5 5 5 6 7 2 7 2 3 9 2 3 2 3 5 5 3 5 8 10 7 6 6 8 10 9 11 11 12 10 9 10 9 9 10 13 18 15 14 14 15 15 16 16 15 14 13 13 13 13 13 13 13 13 13 13 13 14 14 13 13 15 13 13 11 11 13 12 11 11 10 10 10 10 11 11 11 12 11 11 10 9
5 5 5 2 0 2 2 3 1 4 7 3 1 4 5 4 5 3 0 1 2 4 1 7 5 5 4 5 4 5 6 6 7 7 8 9 7 7 9 10 11 11 11 11 10 10 8 8 8 9 11 11 9 12 14 15 16 15 15 15 15 14 13 13 13 12 13 13 12 13 13 14 14 14 13 13 13 12 11 11 12 12 12 10 10 10 10 10 10 10 11 12 12 11 10 9 8
1 1 3 2 2 0 3 2 1 2 7 1 2 4 9 2 4 3 5 3 2 2 2 3 3 4 5 9 5 8 9 10 8 8 9 9 9 7 10 9 10 10 10 10 10 10 9 8 8 8 8 8 9 7 7 12 16 15 15 15 14 14 13 13 14 13 14 14 13 13 13 14 14 15 14 13 12 11 12 12 12 12 11 10 9 9 10 9 10 11 12 12 11 10 9 8 7
3 4 2 2 4 3 4 2 2 1 9 1 2 5 9 8 4 5 4 1 0 3 1 3 0 1 2 11 6 12 13 11 9 10 10 12 9 8 10 9 9 9 8 9 9 8 9 9 8 8 8 8 7 7 8 9 14 16 15 15 16 14 13 13 13 14 14 14 14 13 13 11 11 10 15 11 13 11 10 8 10 10 11 10 9 8 8 9 10 10 11 11 10 9 9 7 6
2 3 1 2 6 4 3 4 5 4 6 3 4 7 6 7 5 2 2 5 5 0 2 2 1 1 4 3 8 13 13 12 12 12 12 10 9 8 8 8 8 8 7 8 9 8 9 10 10 8 8 8 8 8 7 8 11 16 14 16 17 16 12 13 14 15 14 13 13 13 10 7 6 6 7 6 11 7 9 10 10 10 10 10 9 7 7 9 9 11 10 10 10 9 8 7 6
2 2 4 2 6 2 4 4 6 1 3 6 12 5 5 9 6 3 1 5 3 3 5 3 3 4 2 3 12 13 12 14 14 15 11 11 9 8 7 8 8 10 10 9 9 9 9 9 10 9 8 9 8 6 5 6 8 10 7 8 8 10 11 11 10 8 8 7 12 8 6 6 6 6 6 8 5 7 8 10 10 10 10 9 9 8 8 8 9 9 9 9 9 8 6 5 4
3 1 3 9 4 5 6 2 3 3 6 7 9 4 4 7 5 4 2 1 3 3 4 3 5 5 7 9 13 13 13 12 14 13 14 14 11 11 9 9 8 10 10 8 8 9 8 8 8 9 8 8 8 6 5 7 8 6 6 6 6 8 8 7 7 8 6 7 6 6 5 4 5 5 5 7 6 10 9 11 11 11 11 11 10 9 7 6 7 8 8 8 8 7 5 4 4
3 5 4 10 4 2 4 2 5 4 6 7 10 6 5 9 3 1 2 2 2 4 4 4 6 9 11 12 13 13 13 13 13 14 14 13 12 11 11 10 10 10 10 8 8 6 8 8 9 8 9 9 8 6 6 6 6 7 6 5 5 6 7 7 7 6 6 7 6 6 5 4 5 4 9 13 10 6 7 9 12 12 12 12 10 5 6 6 7 7 8 7 5 3 4 3 4
1 1 7 4 3 1 3 1 4 6 3 4 5 7 9 6 3 1 1 1 4 6 8 7 12 13 14 13 14 13 14 14 14 14 15 15 11 9 10 11 10 9 9 7 6 8 8 8 8 8 9 9 7 6 8 6 7 6 6 6 6 6 6 6 5 5 6 7 7 6 5 5 5 5 5 5 5 5 5 5 5 5 5 5 7 4 2 3 3 4 4 4 4 4 4 4 4
3 8 6 2 3 4 3 4 6 4 6 2 4 8 8 5 2 1 2 4 7 5 6 9 7 13 16 15 13 11 13 13 13 14 15 16 16 12 8 3 4 7 7 8 8 7 8 7 7 8 8 9 7 7 8 8 9 7 6 6 6 6 6 5 4 5 5 6 6 6 6 6 5 5 5 5 5 5 5 4 4 4 5 4 3 3 2 2 2 3 3 4 3 3 4 3 3
3 5 6 4 4 5 2 4 6 5 5 5 5 3 3 5 8 4 5 8 5 3 6 8 7 10 11 13 14 12 8 6 6 11 14 11 13 11 8 1 2 6 6 6 7 6 8 8 6 7 8 8 8 7 7 6 6 6 6 7 7 6 5 6 4 4 4 5 5 6 6 5 5 5 5 4 5 4 5 4 4 4 4 4 2 2 3 2 2 2 3 3 3 4 4 3 3
3 7 1 3 2 5 6 7 9 6 3 6 3 5 5 7 7 1 2 6 3 3 3 8 9 8 10 10 8 12 14 12 11 11 3 12 13 15 8 5 5 5 6 7 7 6 7 9 7 8 7 8 8 8 8 7 6 6 7 8 8 7 7 5 4 4 4 4 5 5 5 5 6 6 6 5 4 4 5 5 4 3 3 3 2 2 2 2 2 2 2 3 3 3 3 2 2
4 7 2 3 3 4 6 5 6 7 8 6 2 5 11 2 4 3 6 4 2 1 4 8 10 10 9 11 16 16 14 13 11 12 16 11 14 14 13 9 6 4 8 6 4 8 8 8 8 8 7 8 7 7 8 7 7 6 6 7 8 10 5 6 5 5 4 4 4 4 5 6 5 5 6 6 4 5 4 4 4 3 3 2 3 2 2 2 2 2 2 3 2 2 3 3 2
6 7 4 5 5 5 5 6 8 9 6 1 3 7 8 5 4 3 9 2 1 3 6 8 11 12 11 12 13 11 10 13 9 7 11 19 16 10 6 6 6 3 1 6 6 6 7 8 9 9 9 7 7 7 7 8 7 6 7 7 7 8 6 7 6 4 4 5 4 4 4 5 5 5 6 5 5 5 4 4 4 4 3 2 3 2 1 2 2 2 2 3 2 2 2 2 2
3 4 4 6 6 4 4 3 6 5 3 2 3 9 5 2 3 7 1 2 5 5 6 6 10 12 11 11 10 8 10 11 16 15 10 14 19 19 13 6 4 3 4 6 8 8 8 9 9 9 7 8 7 7 7 8 7 7 7 6 6 7 7 7 5 4 4 4 4 5 4 5 5 5 6 5 5 4 4 4 4 4 3 2 2 2 1 2 3 2 3 2 2 1 2 4 5
1 4 4 5 6 3 5 5 9 3 5 3 6 7 1 2 1 7 3 3 4 9 9 10 10 10 10 11 8 6 8 9 13 15 14 15 12 16 21 19 12 9 9 9 9 10 10 13 11 10 9 8 8 8 8 8 8 7 7 5 6 7 6 6 6 5 6 5 5 4 5 5 5 5 6 5 5 5 4 4 4 3 3 2 2 3 3 3 3 3 3 3 2 1 2 4 5
3 0 4 6 6 5 2 4 5 3 4 1 4 3 5 1 4 5 2 5 3 5 11 12 12 10 9 6 6 5 9 10 8 9 12 13 9 8 13 17 21 19 12 15 17 17 14 14 13 11 10 10 9 9 8 7 6 8 7 5 7 7 6 6 5 5 5 6 5 4 5 5 5 6 5 6 6 5 5 5 4 3 3 2 2 4 5 4 3 3 3 3 3 3 4 5 5
1 0 1 5 5 7 5 2 2 0 4 3 5 5 7 7 8 4 5 8 6 7 10 9 9 10 7 6 6 4 5 7 6 8 8 9 10 11 13 15 22 19 20 14 9 8 6 7 8 7 9 9 9 7 7 7 8 8 7 6 7 6 6 6 5 5 5 5 4 4 4 4 5 4 6 5 5 5 5 4 4 3 3 3 3 2 4 3 4 4 3 3 3 4 4 5 6
2 3 1 1 3 5 5 1 2 1 2 3 3 3 8 10 5 5 4 9 11 10 11 11 10 10 7 6 6 6 4 5 10 8 7 4 4 4 5 4 11 12 5 7 8 7 6 5 7 6 9 8 7 7 8 8 8 8 8 6 6 6 6 5 4 4 4 4 4 4 4 4 4 4 4 5 5 5 4 4 4 4 4 4 3 2 3 3 4 4 3 3 3 3 4 5 6
2 2 6 4 2 6 11 6 2 1 2 4 4 1 7 10 5 4 3 4 7 10 11 13 9 9 8 6 7 7 5 5 6 7 7 6 3 0 1 2 5 5 5 7 7 8 7 6 7 7 8 7 5 5 6 7 8 7 7 8 6 6 6 5 5 5 4 4 4 4 4 4 4 4 4 5 5 4 5 4 4 4 5 3 2 2 2 3 3 4 3 3 5 3 5 5 6
5 1 4 3 0 4 6 1 2 1 3 1 0 4 4 4 5 3 3 6 6 7 11 12 10 10 8 8 7 6 6 5 6 7 7 5 1 1 4 3 3 3 5 7 9 8 7 8 9 9 8 7 6 5 6 7 7 7 7 7 7 7 6 5 5 5 5 4 4 4 4 4 4 4 5 5 5 5 5 4 3 4 4 3 3 2 2 2 3 4 2 2 2 4 5 7 6
2 1 1 2 1 2 1 9 0 3 2 3 3 1 5 9 5 1 4 5 6 6 10 11 9 8 8 7 7 7 8 9 10 9 7 5 3 1 5 5 3 4 6 7 8 7 7 7 7 9 7 7 6 6 6 7 6 7 7 7 7 6 6 5 5 5 5 5 4 5 4 4 4 4 5 5 5 5 4 5 4 4 3 3 3 2 2 1 3 4 4 2 2 4 5 7 7
1 1 1 4 1 3 5 1 3 11 3 2 3 1 7 10 2 3 6 6 7 7 8 11 10 9 9 8 7 8 8 9 10 8 6 4 1 2 5 5 4 3 6 8 8 7 8 7 7 9 8 7 6 6 7 7 7 7 7 7 7 6 6 5 5 5 5 4 4 5 5 4 4 5 5 5 5 5 4 4 4 4 4 3 3 3 3 2 3 3 5 4 5 5 6 6 7
2 2 2 2 3 4 2 5 5 1 5 8 4 4 7 7 7 4 6 7 9 4 8 8 8 8 8 9 8 8 9 10 5 4 4 3 2 2 4 5 3 4 6 7 9 9 9 8 7 7 7 7 7 6 6 7 7 8 8 7 7 6 6 5 4 5 4 4 4 5 5 5 4 5 5 5 5 5 5 4 4 3 4 5 4 4 3 3 4 5 5 6 7 7 6 6 7
2 2 1 4 5 7 1 2 6 1 2 5 7 5 4 7 7 6 9 7 3 7 10 9 9 9 10 11 10 9 8 8 3 4 4 4 3 3 5 4 2 5 7 7 7 8 9 9 8 8 7 7 7 8 7 8 7 7 6 6 6 5 6 6 4 4 4 4 5 5 5 5 5 5 5 5 5 5 4 4 4 3 4 4 4 4 4 4 4 5 4 4 6 6 4 4 5
2 2 3 7 3 8 2 2 3 3 3 5 3 2 7 9 5 6 5 5 10 11 11 12 12 11 12 14 12 11 8 1 3 3 3 4 4 5 5 4 3 8 7 7 8 8 8 9 10 8 6 7 7 7 6 6 5 5 5 5 5 4 7 6 4 4 4 4 4 4 4 5 5 5 5 4 5 5 5 4 5 4 4 4 3 2 3 4 5 5 5 4 2 4 4 5 6
1 3 3 4 7 4 7 5 3 1 5 7 2 1 8 7 7 5 5 12 11 15 17 17 15 14 13 12 12 9 8 6 2 2 3 3 5 5 5 4 4 6 6 7 8 8 8 8 8 7 6 7 6 7 7 6 5 5 5 4 6 4 3 3 4 4 4 5 4 5 5 5 5 5 5 5 5 5 5 5 5 4 4 4 4 3 3 3 4 6 6 6 3 2 3 4 3
3 1 1 8 3 3 6 5 2 1 1 5 5 5 9 7 5 3 2 4 5 3 10 14 17 17 16 17 16 14 13 11 10 6 4 5 5 4 5 4 6 7 6 6 8 9 7 7 8 7 7 7 6 7 7 7 7 7 6 6 5 4 5 5 5 5 5 5 5 4 4 4 4 5 4 4 4 4 5 5 4 4 4 4 5 5 4 4 3 3 4 4 6 5 3 3 3
2 4 4 3 1 4 7 6 4 5 4 2 3 3 6 4 6 7 6 6 2 1 5 7 9 10 8 5 6 7 11 11 8 6 6 6 6 6 6 3 7 8 6 7 8 7 5 8 8 8 7 7 7 7 8 8 8 8 7 6 7 7 6 5 6 4 4 4 4 4 4 4 4 4 4 4 4 5 4 4 5 5 5 4 4 5 5 5 5 4 5 6 6 6 4 2 1
3 6 10 7 6 7 6 3 4 6 5 1 1 4 3 3 4 5 7 6 1 1 8 12 12 12 10 11 11 8 7 4 5 7 7 6 6 5 7 5 7 8 7 6 6 6 6 7 8 7 6 7 7 8 8 7 7 9 8 8 7 5 6 6 6 7 5 5 5 3 4 3 4 3 4 4 4 4 5 4 4 5 4 3 4 4 4 3 4 5 6 6 6 5 6 5 4
1 7 9 11 10 7 5 4 2 2 1 2 2 1 6 4 4 7 7 4 5 4 6 10 9 10 10 10 9 9 8 6 3 5 5 7 6 5 8 6 7 8 6 6 6 5 6 7 7 7 7 7 7 8 7 7 7 6 7 7 7 8 8 2 3 4 5 4 5 5 4 3 3 5 4 4 4 4 4 4 4 4 4 4 3 4 5 6 5 6 4 5 6 5 4 5 6
3 6 10 7 5 5 6 2 4 5 2 3 2 3 3 5 3 4 4 3 2 5 7 9 10 10 10 6 5 5 5 6 6 7 6 6 6 5 8 6 7 7 5 7 6 6 7 8 8 7 6 7 6 7 6 7 8 6 6 5 6 7 7 7 6 5 4 5 6 5 4 3 3 3 5 4 5 5 4 4 4 4 4 4 4 5 6 4 3 2 4 4 5 5 5 5 5
7 2 9 8 10 9 4 3 4 2 1 9 1 0 1 3 4 3 3 2 3 7 8 10 11 9 5 4 5 6 5 5 6 6 8 8 6 6 6 7 7 6 6 6 5 5 6 6 6 6 7 6 6 6 6 5 6 7 6 6 6 3 5 6 5 5 6 5 6 4 5 4 4 3 3 5 4 5 5 5 5 5 5 4 4 5 4 5 6 6 5 5 6 5 5 4 5
6 5 1 2 3 2 3 4 3 1 1 7 6 2 1 6 4 3 3 4 7 7 6 7 8 6 5 5 5 6 6 7 6 7 7 8 6 6 5 6 8 5 4 4 3 4 5 6 6 6 7 6 6 6 6 6 5 6 7 6 8 6 6 5 5 6 5 5 6 4 4 5 4 4 4 3 4 4 5 4 4 4 4 4 3 5 4 4 4 4 4 4 4 5 4 5 6
3 6 3 2 6 2 3 4 2 2 3 8 5 1 2 4 4 5 4 4 3 5 4 4 5 6 6 6 7 6 7 8 7 8 7 7 7 8 6 9 9 5 5 5 4 5 6 6 6 6 6 5 6 7 7 7 6 6 7 7 8 8 7 7 7 5 4 4 6 4 4 4 4 4 4 3 4 5 4 4 5 4 3 3 4 4 4 4 3 3 3 3 3 5 5 5 4
1 0 1 2 1 5 3 3 4 2 6 8 2 3 5 4 3 3 5 5 6 4 8 6 6 6 6 5 5 5 5 6 7 7 8 8 10 9 6 6 10 7 7 7 5 5 6 6 7 7 6 6 5 6 7 7 6 5 5 7 8 8 9 7 7 7 6 6 6 5 4 5 3 4 3 5 5 4 5 5 4 4 5 4 5 4 4 4 4 4 4 3 3 3 5 5 5
4 4 3 3 2 2 1 2 2 5 6 3 2 4 2 3 2 4 8 7 6 6 7 6 2 3 2 0 2 4 5 4 4 2 2 2 8 10 8 4 8 9 8 7 7 6 6 7 8 8 7 5 6 6 7 6 6 6 7 7 7 7 8 8 7 7 5 7 6 6 5 5 4 4 3 6 4 5 6 6 5 5 5 4 4 5 4 4 4 4 4 4 4 4 5 6 6
7 6 5 4 1 1 1 3 1 5 7 4 1 1 1 2 2 2 7 9 8 7 6 1 2 3 4 5 6 8 9 9 5 2 1 1 2 7 8 4 4 7 7 6 6 6 5 6 8 8 7 5 5 6 7 7 6 7 7 8 8 8 8 8 7 8 7 6 6 7 6 6 5 4 4 4 5 4 4 4 5 5 5 5 5 5 4 4 4 5 4 5 4 3 4 4 5
9 3 11 8 8 5 2 3 4 6 7 2 3 1 2 2 1 5 4 5 6 3 3 5 7 8 7 7 7 7 5 2 4 6 4 1 4 4 6 6 1 6 5 6 4 5 5 4 6 7 6 5 6 6 6 7 7 7 7 7 8 6 7 6 6 7 7 7 5 6 5 4 5 4 5 4 4 5 5 5 5 6 5 5 4 5 4 5 4 5 5 5 5 4 5 4 4
0 2 5 6 6 6 3 5 3 2 1 0 1 1 0 1 2 3 1 6 9 7 6 6 7 8 9 9 9 4 2 1 2 5 7 5 4 4 4 7 3 4 5 4 5 4 4 4 5 5 5 5 5 6 6 7 6 5 6 6 6 6 5 5 5 5 5 6 7 7 6 4 4 4 3 4 3 5 6 6 5 6 5 4 4 4 5 5 4 6 5 5 5 3 5 5 4
3 4 5 7 2 8 5 2 2 4 3 1 0 3 3 6 3 4 7 8 9 8 7 6 7 8 10 9 8 7 5 4 4 4 5 7 5 4 5 5 6 4 6 4 5 4 5 4 4 4 4 3 3 4 5 4 5 5 5 6 6 6 7 8 7 6 6 4 5 5 6 4 4 3 4 3 5 4 5 6 6 5 4 4 5 4 5 5 4 5 5 5 5 4 5 6 5
5 2 7 1 2 4 5 4 2 3 2 3 1 1 4 2 2 5 7 9 7 8 7 5 3 6 9 8 8 7 6 5 7 4 6 7 6 4 4 6 7 6 4 8 6 4 5 7 5 2 4 4 2 3 4 4 5 5 5 6 6 7 7 7 7 8 6 7 5 5 5 6 5 4 4 3 5 6 5 5 6 5 4 4 5 5 5 5 5 6 5 5 4 4 6 5 5
7 3 5 5 2 2 2 5 0 0 1 1 2 1 3 4 2 4 6 6 6 5 7 7 7 7 9 10 8 6 7 7 7 8 4 8 7 6 6 7 10 10 8 7 8 7 6 8 7 5 6 4 1 2 4 3 4 5 5 7 7 6 6 7 6 7 7 7 7 6 6 6 5 5 5 6 6 6 5 4 5 5 4 4 4 5 5 6 5 5 5 5 4 5 6 6 5
2 4 4 1 3 3 4 5 4 5 3 2 3 2 2 2 2 4 8 6 6 4 6 7 8 7 7 7 8 5 6 8 8 9 7 8 6 7 5 6 8 10 9 6 7 5 7 8 11 8 8 8 4 1 3 7 5 6 6 6 5 6 7 8 7 8 7 7 7 7 6 5 6 5 5 5 6 6 6 5 4 5 5 4 4 4 5 6 6 5 4 5 4 6 7 6 4
1 2 1 1 2 2 5 2 2 3 5 4 3 1 4 3 2 4 7 7 5 4 4 5 7 8 9 8 8 7 7 7 5 6 6 7 8 6 5 5 6 6 8 8 7 7 7 10 10 10 13 10 6 5 4 5 5 6 7 8 7 7 7 7 7 7 8 6 6 6 6 6 5 5 5 6 6 6 6 6 6 5 5 4 4 4 4 5 6 5 5 5 5 6 6 4 5
4 7 6 8 6 4 2 3 1 2 3 3 4 4 5 5 2 3 4 3 2 4 6 7 7 6 4 3 4 7 8 7 6 6 5 2 3 1 2 2 1 6 7 9 8 9 10 11 13 13 8 6 7 7 6 5 4 5 7 7 7 7 8 7 8 7 7 7 6 6 6 5 6 5 6 6 6 5 5 6 6 5 5 4 4 4 4 4 6 5 4 4 5 6 6 5 5
Wind_Direction
146 152 163 103 52 105 60 359 139 302 74 249 298 189 255 243 257 331 267 342 333 260 246 325 309 213 192 223 197 120 355 141 195 143 214 198 138 126 128 129 132 132 130 133 134 133 135 137 136 139 138 131 129 127 126 125 124 125 124 123 123 122 120 120 122 123 123 124 124 125 127 128 128 126 126 126 123 122 123 121 118 119 119 119 119 119 118 121 121 117 115 114 115 114 111 109 109
145 108 64 45 79 57 227 122 99 358 37 357 247 127 243 244 130 222 227 175 206 281 302 296 4 66 66 61 119 131 38 6 197 147 80 118 104 106 131 134 138 135 134 134 134 133 133 136 136 140 137 131 128 126 125 123 124 126 123 121 121 121 122 124 126 126 127 128 130 131 132 135 134 131 129 127 121 121 121 121 121 121 122 121 119 119 120 122 119 116 115 112 110 109 109 110 108
118 100 53 35 24 77 99 38 277 35 143 247 266 211 282 164 221 216 198 226 244 272 297 281 259 207 324 335 359 344 217 21 101 109 88 121 124 147 138 135 135 132 131 132 133 132 132 137 140 141 136 131 129 126 124 123 125 124 123 122 122 122 124 127 126 127 127 128 131 133 138 140 136 133 127 121 120 119 118 122 124 123 122 121 120 119 120 121 120 117 114 112 112 112 111 108 108
91 36 146 68 118 23 67 28 88 136 171 225 301 256 213 204 256 34 246 252 266 283 274 290 4 248 245 33 332 52 76 136 10 125 127 164 152 141 135 132 131 128 128 130 131 130 132 141 142 141 136 132 129 126 125 125 127 126 124 124 120 123 124 127 127 127 127 127 128 129 133 133 127 122 116 118 119 121 123 124 124 124 122 121 119 119 122 123 120 118 115 114 112 110 111 109 109
103 32 104 102 112 3 105 170 148 114 233 182 210 272 244 244 274 292 264 273 294 286 215 169 57 316 117 123 180 132 223 82 112 207 99 83 117 136 132 132 131 129 127 126 126 128 137 140 143 140 135 132 129 126 125 127 129 128 124 122 124 125 127 129 131 131 130 130 128 125 124 123 121 115 112 114 118 122 124 121 117 116 118 118 117 119 122 123 120 118 116 113 112 110 108 106 101
61 51 1 97 181 184 57 68 257 225 227 161 264 258 221 221 233 259 295 294 279 287 219 89 152 288 3 333 299 113 178 135 188 92 131 133 131 134 131 131 131 125 124 124 127 131 137 143 143 137 134 133 129 127 127 130 132 130 126 126 128 130 130 132 133 132 133 134 131 131 125 117 114 110 104 101 99 109 111 110 111 115 116 117 116 118 123 122 118 116 115 114 110 106 99 93 92
173 54 355 36 16 57 166 165 236 235 267 171 244 282 282 283 265 325 310 333 265 11 360 131 129 102 57 328 360 61 317 159 123 157 116 133 130 133 136 136 131 128 128 131 132 133 141 144 141 136 133 132 131 129 130 133 135 134 130 128 129 130 132 132 131 133 136 139 142 133 127 123 118 113 109 105 104 107 111 115 121 120 120 120 116 115 121 120 117 115 110 104 100 95 90 88 86
99 105 282 103 240 46 173 226 254 149 275 185 237 273 280 275 311 308 289 360 295 65 335 142 126 102 255 2 226 305 15 6 100 105 118 128 132 136 136 137 131 129 130 133 136 140 144 143 139 136 133 133 132 132 134 138 138 133 130 130 131 133 134 132 131 130 135 138 131 130 125 125 128 120 115 111 106 109 117 123 125 123 124 122 117 118 123 119 117 111 105 102 95 92 89 84 77
358 89 294 78 67 42 5 246 257 224 273 279 267 242 264 274 272 266 276 232 291 251 184 166 174 103 238 43 358 331 23 29 100 119 125 132 138 138 137 139 132 131 132 134 138 142 140 143 138 137 136 135 136 138 141 143 140 136 134 134 136 135 134 133 132 131 131 133 134 130 128 129 128 118 116 113 111 112 119 126 128 126 123 120 115 119 123 120 116 110 102 96 93 90 87 81 73
34 96 216 141 127 237 342 278 136 242 228 233 268 278 278 285 283 217 261 282 235 278 241 145 107 124 129 111 134 353 347 92 111 114 129 137 138 136 138 142 139 136 137 139 142 139 143 141 138 139 138 138 140 142 146 146 139 136 136 135 134 133 133 132 131 130 128 135 135 127 127 128 122 117 118 120 119 117 118 124 129 126 124 120 116 118 120 117 111 103 99 94 91 88 84 79 71
37 9 139 81 44 232 236 274 264 296 272 299 286 261 258 269 242 261 215 240 231 202 308 136 57 124 116 123 78 352 75 136 126 132 136 136 140 139 133 132 134 140 139 142 137 136 139 141 142 141 139 138 142 146 147 143 135 133 133 132 133 134 132 131 132 128 130 134 129 126 125 124 122 123 124 124 123 124 122 120 123 127 126 119 113 113 114 110 103 97 95 91 87 82 79 76 71
53 103 35 110 190 175 240 227 272 284 296 290 274 315 226 260 299 286 261 232 236 216 178 185 180 153 83 137 111 120 106 109 135 132 133 136 139 136 130 126 130 130 133 132 130 133 134 140 141 143 140 142 145 146 144 136 132 133 134 132 131 131 129 131 131 130 131 129 127 127 127 127 127 125 127 126 125 125 125 127 129 130 127 117 114 111 107 104 101 97 93 90 83 79 77 75 74
120 97 88 95 227 169 230 291 269 294 317 272 242 304 339 324 296 277 263 235 190 152 217 202 135 95 119 165 111 139 150 155 150 137 133 131 123 127 126 128 130 136 134 129 128 127 133 136 142 141 145 145 144 142 136 132 132 133 133 132 131 129 130 132 133 129 129 128 129 130 129 127 126 126 124 127 126 127 128 128 135 133 124 120 116 109 104 101 98 95 90 85 79 77 75 73 72
117 177 125 196 75 197 157 247 292 331 291 258 256 297 330 322 315 312 238 82 207 147 254 155 115 119 88 112 140 168 176 158 145 137 130 129 129 132 133 132 133 137 134 130 128 131 134 139 138 143 144 141 141 137 132 132 134 133 133 133 132 131 130 133 131 128 132 130 128 128 131 129 126 124 124 125 122 119 120 125 124 131 124 117 112 104 98 92 88 84 78 74 74 73 72 70 70
124 161 83 124 247 45 249 144 227 157 263 62 284 5 331 311 301 345 69 58 307 267 107 71 163 100 197 173 181 196 163 163 146 128 127 126 131 131 134 129 127 126 124 125 127 134 138 137 137 137 135 138 135 128 131 137 135 134 136 135 134 132 132 133 135 138 138 135 131 131 133 129 130 127 126 121 119 119 124 120 122 121 117 114 107 101 94 87 80 74 72 71 70 70 70 69 71
154 83 87 148 254 179 264 161 212 334 266 112 282 341 342 331 349 9 343 200 251 322 80 162 56 150 192 186 192 160 150 151 137 125 126 132 129 129 135 127 120 119 119 126 136 143 143 140 137 135 136 140 133 130 134 137 139 138 137 137 134 133 133 136 139 140 138 136 130 125 123 122 121 123 120 115 110 104 105 108 116 114 113 110 100 94 94 87 77 73 71 70 69 67 67 69 74
66 81 105 53 265 163 252 177 149 218 254 288 297 13 4 324 310 117 25 38 110 68 31 352 277 4 183 205 142 134 145 138 133 130 129 132 134 135 134 131 126 122 131 144 150 152 148 144 141 138 139 137 134 135 136 135 144 140 139 136 136 137 132 140 143 134 129 124 119 114 102 97 96 95 98 104 103 104 107 111 111 111 111 113 109 103 89 77 77 73 69 70 70 68 70 68 72
66 153 117 249 214 159 208 183 191 214 310 324 329 351 344 330 342 302 61 38 27 18 29 340 17 19 152 137 127 136 141 142 142 141 140 138 136 130 138 140 139 146 152 154 159 154 149 147 144 137 139 139 136 126 121 125 132 134 127 127 130 139 143 136 127 116 118 101 104 102 97 101 102 105 107 110 106 111 111 106 107 106 105 101 100 98 80 73 76 76 72 73 74 72 66 63 49
113 116 118 228 195 235 164 199 224 340 300 305 299 347 360 299 347 305 360 338 5 352 24 70 80 80 94 122 132 140 147 147 147 146 144 139 141 141 147 148 154 155 158 157 157 154 147 143 141 140 138 136 126 114 118 123 119 118 114 117 124 129 117 100 100 102 91 98 93 96 99 103 106 107 109 115 111 115 112 113 113 114 111 106 99 92 94 89 81 82 80 77 76 75 68 63 64
223 115 219 243 187 233 207 222 276 236 261 300 319 322 354 290 298 309 280 198 5 237 168 122 147 150 148 146 147 151 155 156 152 148 146 140 138 147 153 159 163 160 153 155 151 144 146 146 140 139 138 138 128 121 108 111 129 119 113 105 103 98 90 89 94 103 102 105 107 105 108 108 102 109 127 121 110 99 108 111 115 114 109 102 90 82 76 74 68 64 67 70 70 77 80 64 74
268 109 213 245 186 243 276 269 233 267 284 286 304 312 325 314 286 9 167 349 259 237 232 200 178 170 162 160 157 157 162 164 158 153 151 145 141 153 163 167 159 151 151 139 140 148 144 138 139 137 135 137 129 120 120 118 121 122 116 109 107 103 100 100 103 103 114 115 116 114 110 105 101 93 88 87 94 98 89 78 81 79 80 80 92 88 58 39 46 54 51 62 70 83 82 70 84
122 221 253 192 333 312 257 259 268 267 275 306 304 332 292 302 333 38 168 236 247 220 220 229 212 161 156 159 164 163 165 168 163 159 161 153 150 149 150 107 112 136 134 142 142 132 128 136 143 137 131 133 133 130 127 128 126 128 126 112 107 100 100 100 102 114 113 114 119 117 107 103 96 94 92 102 100 104 97 90 87 88 85 93 98 104 80 36 26 59 67 77 58 71 82 81 73
233 290 260 242 229 255 285 288 276 274 304 308 316 264 329 324 296 260 232 224 237 244 240 166 186 179 159 154 154 162 153 141 166 177 166 151 139 121 100 79 65 137 137 123 118 112 128 139 131 131 136 136 132 126 124 121 133 130 115 114 109 100 108 112 112 123 122 124 119 121 116 110 107 109 108 100 105 106 99 91 90 90 95 96 92 99 80 60 58 69 78 76 82 81 72 65 84
210 253 289 304 180 224 252 264 278 299 292 268 247 325 309 297 322 258 196 243 251 280 188 145 153 146 148 137 101 71 63 61 55 23 1 134 124 117 133 73 25 51 79 110 102 114 136 139 138 139 139 141 137 136 126 128 122 118 127 124 118 130 125 123 132 137 125 120 120 115 117 125 131 132 118 110 116 100 103 105 106 102 97 86 89 75 92 58 69 79 83 70 71 55 83 60 89
212 261 276 264 236 236 253 267 286 279 269 254 292 300 277 237 237 333 266 277 280 166 131 140 141 139 121 98 98 115 109 92 73 81 81 39 52 54 42 34 23 44 84 55 125 138 141 141 146 147 151 148 139 134 131 124 124 129 123 125 132 138 125 130 136 136 125 117 109 119 132 129 129 129 129 136 125 113 109 110 106 108 99 89 79 60 82 110 94 87 69 78 70 81 89 103 87
224 242 271 272 268 282 281 300 281 274 280 202 330 278 277 281 232 262 251 275 177 139 128 144 139 128 118 113 133 120 98 94 95 72 117 122 109 90 79 47 10 338 75 143 143 139 147 148 160 164 162 153 138 135 131 128 131 125 127 136 137 127 133 132 134 128 123 125 118 121 127 132 137 139 140 131 124 115 115 105 105 110 106 96 77 82 90 107 107 82 64 63 65 50 41 24 44
186 218 223 247 262 293 305 232 284 295 260 245 262 280 294 338 118 289 298 186 131 118 126 133 123 117 116 125 132 123 117 128 133 149 180 140 143 141 139 134 127 277 244 191 158 162 162 163 167 170 158 149 139 141 135 137 141 139 133 133 123 129 138 133 130 128 132 125 136 139 131 133 132 137 137 130 117 120 113 109 104 100 101 106 120 128 124 120 112 92 73 73 73 44 9 6 32
243 244 295 286 285 270 250 301 275 300 302 209 196 250 328 271 89 233 245 168 156 137 135 126 117 114 123 140 134 119 116 146 144 156 166 142 163 154 156 158 176 173 205 212 180 168 171 174 172 172 159 151 150 145 141 141 147 136 124 127 127 131 138 131 137 141 137 140 148 148 138 134 135 133 132 125 127 125 117 111 113 119 119 117 160 147 125 109 109 99 81 73 67 50 31 30 42
268 336 289 291 334 325 273 216 258 154 263 214 159 329 314 360 220 250 214 134 129 124 132 125 124 121 126 137 123 125 135 155 172 165 174 163 163 162 164 158 162 179 198 198 187 177 175 173 172 169 156 155 159 151 144 142 138 128 137 137 127 129 135 139 139 147 141 145 149 149 138 134 134 136 133 133 131 125 125 128 131 129 125 139 147 133 120 111 102 98 79 75 67 57 52 37 43
360 77 180 332 351 330 290 280 329 145 263 135 144 294 277 265 247 297 178 138 125 133 135 128 122 127 133 142 139 134 129 146 181 188 192 172 168 174 175 168 158 179 196 193 179 177 157 147 157 157 156 161 161 142 137 139 137 135 142 136 129 125 134 133 134 138 143 141 143 137 130 126 127 129 132 119 118 123 131 138 145 143 133 136 131 124 118 119 112 105 104 92 73 61 60 44 55
233 258 75 273 1 283 282 307 310 12 252 167 137 204 285 278 293 253 204 154 150 157 147 139 131 128 141 151 144 148 163 179 182 200 219 231 190 177 179 270 4 11 60 102 153 134 124 137 147 147 154 159 153 139 139 137 134 136 140 134 130 129 129 129 128 133 132 126 120 119 121 122 119 122 119 126 118 123 132 144 149 146 132 130 127 125 123 118 117 117 127 110 85 73 71 60 68
343 18 287 335 171 279 307 316 173 217 330 74 97 16 243 269 289 243 192 160 162 159 153 152 133 137 147 152 154 151 164 200 216 210 219 214 206 352 340 319 101 39 68 109 117 126 143 144 147 141 143 145 141 138 132 133 134 133 133 134 124 129 128 128 132 133 130 115 112 120 122 120 122 122 121 124 127 137 144 150 148 135 130 118 122 131 133 127 124 114 118 127 121 91 87 68 70
356 104 286 301 351 260 344 315 360 180 266 355 156 235 329 312 342 278 201 176 182 159 153 153 134 145 153 162 159 148 152 204 213 217 221 221 247 23 25 63 94 97 93 114 129 144 139 139 142 141 144 141 138 126 124 124 129 130 127 114 121 127 128 126 131 132 132 126 124 133 134 134 135 134 133 135 136 142 141 133 131 133 128 131 140 137 131 144 125 111 94 102 84 116 94 87 74
320 5 215 212 257 292 280 303 37 18 74 319 351 180 246 265 314 259 240 195 175 180 155 149 138 154 167 164 162 163 178 180 199 212 222 224 216 49 61 85 93 109 114 113 135 144 137 129 130 143 135 135 135 134 134 133 127 119 113 115 119 119 122 123 128 133 135 138 141 141 144 143 147 142 138 137 131 142 138 130 124 126 131 135 136 130 133 132 108 112 104 90 84 100 100 97 90
217 290 320 314 316 222 229 157 268 2 29 18 342 343 277 274 330 238 212 206 195 180 151 155 152 159 170 175 173 176 188 192 199 198 212 221 205 60 85 89 114 136 128 127 134 137 132 128 129 148 134 134 131 131 127 118 109 100 100 108 113 115 111 112 124 127 133 141 151 145 147 150 151 148 145 143 136 135 123 115 120 138 138 139 136 133 137 127 92 93 117 102 71 72 107 104 106
163 170 182 189 280 278 193 242 288 48 322 330 301 245 270 280 288 268 248 226 205 120 136 145 155 165 172 180 183 185 195 205 192 166 145 134 71 80 92 98 101 130 132 137 138 140 137 137 134 137 137 134 130 124 123 119 116 117 115 112 109 114 113 111 115 128 133 141 148 147 151 155 158 153 151 144 132 132 125 126 124 141 139 133 130 130 139 152 134 104 111 115 99 82 81 109 112
98 126 159 225 242 270 257 227 256 159 336 255 256 257 242 272 257 235 219 216 168 134 160 156 169 173 183 187 191 190 196 204 161 142 133 121 100 98 110 113 129 125 128 139 140 138 139 142 141 146 139 136 134 131 131 129 127 121 113 120 119 125 126 120 120 127 134 148 149 148 155 160 154 148 144 135 131 130 121 131 141 140 143 141 147 166 165 147 129 122 109 91 112 111 96 115 121
209 255 239 276 212 266 269 282 252 209 176 286 266 292 277 255 274 236 234 200 199 172 171 171 180 183 188 190 189 191 194 115 137 133 123 111 111 121 121 139 163 142 142 143 143 138 137 140 146 143 138 137 137 138 134 128 132 133 129 132 133 132 137 138 133 137 142 146 149 152 155 154 149 141 132 121 122 131 142 145 157 160 153 140 125 137 150 140 131 131 131 99 57 126 128 157 161
107 203 247 276 272 252 277 254 270 266 131 249 302 309 273 282 283 278 206 200 208 186 177 180 177 184 192 192 186 180 180 195 191 159 130 122 127 132 137 154 160 133 141 143 138 134 136 142 145 145 143 138 136 133 132 127 115 111 122 137 139 111 76 115 125 140 140 142 148 151 151 142 137 124 120 124 132 146 156 154 163 158 148 144 141 147 149 152 153 149 154 142 123 77 115 182 190
169 206 221 252 238 353 303 294 353 341 190 285 283 308 283 311 303 309 277 284 312 256 199 184 184 184 188 192 185 184 183 185 189 181 177 143 140 151 149 160 156 137 150 144 145 147 146 141 145 144 143 132 129 129 120 115 112 101 94 113 103 105 133 114 105 116 126 131 131 138 121 124 122 119 127 138 146 153 158 163 152 157 150 158 158 156 160 165 157 139 131 146 139 127 131 183 228
275 197 219 250 269 224 187 260 332 301 304 205 277 302 315 344 360 338 322 322 314 129 160 187 212 215 203 168 181 188 187 185 178 173 169 153 150 168 168 165 146 150 163 163 157 156 151 145 143 144 138 132 128 128 124 122 113 102 107 96 97 91 84 103 112 97 113 124 115 111 115 108 114 131 142 150 155 163 165 155 163 163 153 159 159 157 166 184 188 155 152 149 168 154 160 153 229
294 226 204 209 218 242 248 293 2 14 326 309 148 18 303 311 322 324 317 346 329 289 178 198 196 197 188 189 185 174 182 173 184 188 166 145 148 157 154 166 153 154 166 168 159 147 139 141 140 138 130 130 130 131 134 132 132 134 133 129 130 122 125 137 145 150 141 141 144 112 97 117 130 136 139 149 157 157 165 170 158 150 154 159 168 170 166 160 187 191 188 167 169 188 158 144 140
192 274 194 209 218 224 243 252 89 297 232 298 34 133 273 323 360 334 331 331 307 325 228 204 196 198 197 196 179 170 172 168 139 133 147 148 155 167 151 173 153 154 166 155 155 147 134 140 145 143 139 135 134 138 139 130 128 143 150 152 150 152 142 148 117 128 133 128 118 122 128 114 139 143 143 146 148 148 145 147 151 160 165 173 168 151 172 189 195 203 174 164 171 156 137 155 168
237 233 174 193 203 220 238 197 179 234 261 287 40 120 214 307 293 300 277 280 300 264 234 211 208 202 202 189 153 137 162 182 160 154 149 151 165 169 153 161 149 152 156 157 158 149 142 147 151 146 139 140 139 140 140 143 141 147 132 128 137 140 145 146 147 136 120 127 120 133 127 120 105 128 142 141 143 137 133 141 153 151 146 162 162 171 176 178 158 211 200 170 145 167 172 161 166
219 225 158 175 187 205 189 163 195 229 11 288 336 68 83 260 263 295 322 323 286 256 228 218 211 211 199 154 131 137 154 151 153 146 159 159 159 154 144 152 140 138 158 165 161 143 130 133 139 135 137 134 135 141 140 144 144 146 137 132 123 111 117 123 122 118 125 129 124 127 120 113 94 81 108 141 144 144 144 146 146 142 137 135 131 129 132 152 162 160 166 171 175 164 171 154 146
271 158 150 84 84 85 148 150 155 292 85 273 270 187 196 284 279 322 330 296 265 245 238 226 208 199 169 149 137 141 133 134 140 150 153 164 151 142 133 136 129 141 147 139 108 124 122 125 135 135 133 136 141 139 140 142 142 136 133 138 129 121 113 104 110 126 135 141 123 117 111 104 100 88 78 109 125 118 119 122 121 120 123 123 110 128 126 119 133 154 170 183 170 151 136 151 169
118 111 122 41 42 33 36 81 93 80 268 254 247 215 178 284 265 206 165 228 266 307 273 228 212 194 172 165 164 156 146 142 145 151 152 159 145 140 128 146 134 128 126 130 132 135 132 134 138 132 132 135 141 142 143 147 147 150 144 143 137 132 127 125 122 118 120 116 118 118 117 102 83 95 100 99 119 115 109 111 118 117 112 109 110 109 115 120 104 98 96 103 121 136 127 119 104
207 60 122 65 333 12 33 344 48 176 265 260 292 193 150 159 293 316 256 289 288 264 256 249 234 212 193 173 168 150 133 138 146 152 159 160 151 150 137 128 136 133 130 142 153 144 144 143 140 132 136 142 142 142 141 148 147 143 138 140 139 140 138 140 143 147 151 138 133 128 114 100 95 100 106 118 120 122 120 113 112 108 108 109 99 106 100 102 101 98 88 94 96 89 117 125 138
119 84 62 136 263 47 284 12 241 216 216 245 74 130 100 211 214 276 306 299 292 252 246 252 261 218 169 45 52 56 52 72 115 96 106 180 155 148 160 132 134 140 146 153 157 157 150 147 145 143 146 149 146 145 144 147 144 146 144 141 141 143 143 145 144 143 155 144 144 133 135 136 136 111 127 123 135 137 135 125 124 120 108 98 104 92 88 89 104 99 103 98 103 128 146 144 151
133 158 159 104 137 61 237 270 210 315 286 249 12 186 248 227 313 289 311 310 296 269 251 170 145 133 86 72 65 60 47 33 33 99 136 321 64 138 160 157 133 130 141 149 148 152 150 149 152 149 150 150 147 143 147 151 156 151 149 148 151 149 149 148 151 149 159 154 151 147 153 158 160 164 156 147 157 130 110 120 118 105 105 104 101 100 92 88 93 97 94 91 79 68 89 103 120
196 131 155 182 143 161 212 195 216 219 213 283 288 123 228 134 234 328 308 299 344 345 114 97 106 112 111 99 92 78 103 148 174 136 134 80 38 93 139 150 101 124 123 138 134 133 140 145 150 142 141 151 148 148 149 158 162 159 157 154 150 147 146 146 152 149 147 144 143 139 148 149 147 163 146 151 133 116 119 112 112 107 100 96 97 95 88 82 84 89 82 91 77 64 82 96 101
211 164 60 91 219 143 189 206 163 261 286 39 3 180 236 148 301 307 291 28 21 23 51 77 79 91 91 83 81 50 360 80 82 132 134 140 64 61 108 128 84 104 114 123 133 128 131 138 140 142 150 157 152 150 160 164 162 158 148 142 138 134 127 125 124 129 136 145 149 151 157 158 148 135 147 123 122 128 128 112 94 93 93 93 88 96 91 84 85 95 89 85 77 50 80 73 59
230 103 181 212 161 114 78 67 55 101 57 223 359 337 316 306 330 7 357 35 28 27 34 54 67 72 82 98 111 125 115 73 87 139 142 130 83 62 84 109 110 85 135 131 144 151 146 127 110 122 117 111 140 148 155 155 148 144 147 138 134 131 139 147 148 145 138 126 135 142 142 142 129 136 135 131 119 101 103 111 108 103 98 100 92 86 89 82 81 81 87 83 77 56 74 58 46
91 166 233 142 103 117 128 199 346 69 163 247 44 225 295 49 218 344 357 21 22 33 27 44 68 85 82 75 76 73 77 80 75 71 139 131 125 88 91 128 140 125 120 140 145 152 137 115 97 115 121 123 120 129 144 148 147 146 147 142 143 148 149 145 144 143 142 133 130 130 130 134 148 151 134 125 114 109 102 108 117 114 111 99 108 97 88 81 79 68 64 64 57 64 76 53 42
155 199 172 114 264 228 322 94 243 136 262 270 335 249 247 171 259 349 339 344 337 12 35 39 44 58 81 81 64 47 62 53 79 60 101 128 141 153 165 150 159 151 139 152 143 140 133 126 118 62 29 28 17 173 150 145 155 155 154 152 148 144 146 144 148 145 145 144 149 152 153 150 137 139 132 122 110 109 116 118 124 121 105 99 92 96 96 86 85 83 65 66 38 60 68 60 26
46 104 98 351 104 163 132 195 169 125 221 69 286 32 239 220 229 318 305 332 330 332 65 45 56 68 76 79 81 67 66 69 81 93 89 113 138 174 184 160 152 156 143 150 139 125 125 117 102 106 134 186 182 230 169 159 165 153 150 142 146 149 149 146 149 145 151 156 152 146 144 146 155 137 128 120 118 127 138 136 126 114 102 92 93 85 95 101 89 78 87 76 52 74 70 65 55
94 103 260 64 31 217 104 36 87 170 167 173 163 306 283 265 253 304 304 321 321 310 79 63 66 74 80 87 87 84 81 86 86 84 97 130 169 200 183 149 132 132 143 138 142 126 102 99 132 170 186 179 161 165 184 173 156 157 147 151 150 144 141 142 148 156 151 152 147 151 158 153 131 136 135 127 131 144 150 141 129 124 127 128 120 99 84 99 95 91 76 92 74 83 86 63 73
177 163 195 168 122 121 150 249 19 78 100 195 130 235 267 268 337 315 324 357 2 41 68 70 52 57 56 64 92 110 101 68 59 57 44 6 77 51 296 291 80 108 113 121 111 102 123 149 179 187 166 165 178 165 162 157 149 151 158 157 155 149 149 152 151 155 151 150 152 158 153 142 148 157 148 142 146 153 142 131 127 127 127 120 106 97 98 102 107 102 88 79 89 91 91 77 83